TimeEDT,TemperatureF,Dew PointF,Humidity,Sea Level PressureIn,VisibilityMPH,Wind Direction,Wind SpeedMPH,Gust SpeedMPH,PrecipitationIn,Events,Conditions,WindDirDegrees,DateUTC
12:53 AM,63.0,60.1,90,30.11,6.0,Calm,Calm,-,N/A,,Mostly Cloudy,0,2013-10-03 04:53:00
1:53 AM,61.0,60.1,97,30.11,5.0,Calm,Calm,-,N/A,,Clear,0,2013-10-03 05:53:00
2:53 AM,61.0,59.0,93,30.11,5.0,Calm,Calm,-,N/A,,Clear,0,2013-10-03 06:53:00
3:53 AM,61.0,60.1,97,30.11,5.0,Calm,Calm,-,N/A,,Scattered Clouds,0,2013-10-03 07:53:00
4:53 AM,61.0,59.0,93,30.11,5.0,Calm,Calm,-,N/A,,Clear,0,2013-10-03 08:53:00
5:53 AM,60.1,59.0,96,30.12,5.0,Calm,Calm,-,N/A,,Scattered Clouds,0,2013-10-03 09:53:00
6:53 AM,60.1,57.9,93,30.12,5.0,Calm,Calm,-,N/A,,Mostly Cloudy,0,2013-10-03 10:53:00
7:53 AM,61.0,59.0,93,30.13,4.0,Calm,Calm,-,N/A,,Mostly Cloudy,0,2013-10-03 11:53:00
8:53 AM,66.0,60.1,81,30.14,10.0,Calm,Calm,-,N/A,,Clear,0,2013-10-03 12:53:00
9:53 AM,66.9,61.0,81,30.14,9.0,Calm,Calm,-,N/A,,Clear,0,2013-10-03 13:53:00
10:53 AM,70.0,62.1,76,30.13,10.0,Calm,Calm,-,N/A,,Clear,0,2013-10-03 14:53:00
11:53 AM,72.0,63.0,73,30.12,10.0,Calm,Calm,-,N/A,,Clear,0,2013-10-03 15:53:00
12:53 PM,77.0,63.0,62,30.11,10.0,Calm,Calm,-,N/A,,Clear,0,2013-10-03 16:53:00
1:53 PM,78.1,63.0,60,30.08,10.0,South,5.8,-,N/A,,Clear,170,2013-10-03 17:53:00
2:53 PM,79.0,62.1,56,30.07,10.0,Variable,4.6,-,N/A,,Clear,0,2013-10-03 18:53:00
3:53 PM,79.0,63.0,58,30.06,10.0,Variable,3.5,-,N/A,,Clear,0,2013-10-03 19:53:00
4:53 PM,78.1,63.0,60,30.05,10.0,Variable,3.5,-,N/A,,Clear,0,2013-10-03 20:53:00
5:53 PM,78.1,62.1,58,30.06,10.0,South,4.6,-,N/A,,Clear,190,2013-10-03 21:53:00
6:53 PM,73.9,63.0,68,30.06,10.0,Calm,Calm,-,N/A,,Clear,0,2013-10-03 22:53:00
7:53 PM,70.0,63.0,78,30.07,10.0,Calm,Calm,-,N/A,,Clear,0,2013-10-03 23:53:00
8:53 PM,68.0,64.0,87,30.09,10.0,South,4.6,-,N/A,,Overcast,180,2013-10-04 00:53:00
9:53 PM,69.1,64.9,87,30.09,6.0,Calm,Calm,-,0.02,Rain,Light Rain,0,2013-10-04 01:53:00
10:53 PM,66.9,64.9,93,30.10,5.0,Calm,Calm,-,0.00,,Mostly Cloudy,0,2013-10-04 02:53:00